| time (UTC) | temp C | wind direction | speed KPH | gust KPH | rain 1hr cm | rain 24hr cm | rain mn cm | humidity % | barometer mb |
| 20260904194537 | 33 | 103 | 1.6 | 6.4 | 0.00 | 0.00 | 0.00 | 66 | 1008.8 |
| 20260904193023 | 33 | 103 | 0.0 | 6.4 | 0.00 | 0.00 | 0.00 | 69 | 1008.8 |
| 20260904191516 | 33 | 118 | 1.6 | 8.0 | 0.00 | 0.00 | 0.00 | 67 | 1008.8 |
| 20260904190009 | 32 | 146 | 1.6 | 9.7 | 0.00 | 0.00 | 0.00 | 68 | 1008.9 |
| 20260904184504 | 32 | 72 | 0.0 | 9.7 | 0.00 | 0.00 | 0.00 | 68 | 1009.0 |
| 20260904183002 | 32 | 51 | 1.6 | 6.4 | 0.00 | 0.00 | 0.00 | 68 | 1009.0 |
| 20260904181600 | 32 | 148 | 1.6 | 8.0 | 0.00 | 0.00 | 0.00 | 70 | 1009.0 |
| 20260904180108 | 31 | 101 | 6.4 | 9.7 | 0.00 | 0.00 | 0.00 | 68 | 1008.9 |
| 20260904174616 | 31 | 117 | 0.0 | 8.0 | 0.00 | 0.00 | 0.00 | 71 | 1008.9 |
| 20260904173051 | 31 | 112 | 4.8 | 9.7 | 0.00 | 0.00 | 0.00 | 72 | 1009.0 |
| 20260904171534 | 30 | 70 | 4.8 | 8.0 | 0.00 | 0.00 | 0.00 | 72 | 1009.0 |
| 20260904170044 | 30 | 67 | 3.2 | 8.0 | 0.00 | 0.00 | 0.00 | 72 | 1009.0 |
| 20260904164513 | 30 | 53 | 3.2 | 6.4 | 0.00 | 0.00 | 0.00 | 71 | 1008.9 |
| 20260904163010 | 30 | 118 | 1.6 | 4.8 | 0.00 | 0.00 | 0.00 | 74 | 1008.9 |
| 20260904161604 | 29 | 252 | 0.0 | 4.8 | 0.00 | 0.00 | 0.00 | 75 | 1008.8 |
| 20260904160052 | 29 | 231 | 0.0 | 4.8 | 0.00 | 0.00 | 0.00 | 76 | 1008.7 |
| 20260904154534 | 28 | 273 | 3.2 | 6.4 | 0.00 | 0.00 | 0.00 | 76 | 1008.8 |
| 20260904153034 | 28 | 275 | 3.2 | 9.7 | 0.00 | 0.00 | 0.00 | 77 | 1008.8 |
| 20260904151516 | 27 | 267 | 3.2 | 11.3 | 0.00 | 0.00 | 0.00 | 80 | 1008.8 |
| 20260904150017 | 27 | 262 | 3.2 | 11.3 | 0.00 | 0.00 | 0.00 | 81 | 1008.9 |
| 20260904144558 | 27 | 276 | 3.2 | 9.7 | 0.00 | 0.00 | 0.00 | 81 | 1008.9 |
| 20260904143057 | 27 | 253 | 3.2 | 11.3 | 0.00 | 0.00 | 0.00 | 81 | 1008.9 |
| 20260904141539 | 26 | 248 | 6.4 | 12.9 | 0.00 | 0.00 | 0.00 | 82 | 1008.9 |
| 20260904140040 | 26 | 202 | 4.8 | 9.7 | 0.00 | 0.00 | 0.00 | 83 | 1008.7 |
| 20260904134520 | 26 | 196 | 3.2 | 6.4 | 0.00 | 0.00 | 0.00 | 83 | 1008.7 |
| 20260904133020 | 25 | 188 | 3.2 | 6.4 | 0.00 | 0.00 | 0.00 | 84 | 1008.8 |
| 20260904131503 | -17 | 0.0 | 0.0 | 0.00 | 0.10 | 0.00 | 1008.9 | ||
| 20260904124555 | -17 | 0.0 | 0.0 | 0.00 | 0.10 | 0.00 | 1008.8 | ||
| 20260904123050 | -17 | 0.0 | 0.0 | 0.00 | 0.10 | 0.00 | 1008.6 | ||
| 20260904121546 | -17 | 0.0 | 0.0 | 0.00 | 0.10 | 0.00 | 1008.4 | ||
| 20260904120049 | -17 | 0.0 | 0.0 | 0.00 | 0.10 | 0.00 | 1008.4 | ||
| 20260904114537 | -17 | 0.0 | 0.0 | 0.00 | 0.10 | 0.00 | 1008.2 | ||
| 20260904113033 | -17 | 0.0 | 0.0 | 0.00 | 0.10 | 0.00 | 1008.1 | ||
| 20260904111510 | -17 | 0.0 | 0.0 | 0.00 | 0.10 | 0.00 | 1007.8 | ||
| 20260904110006 | -17 | 0.0 | 0.0 | 0.00 | 0.10 | 0.00 | 1007.7 | ||
| 20260904104545 | -17 | 0.0 | 0.0 | 0.00 | 0.10 | 0.00 | 1007.8 | ||
| 20260904103040 | -17 | 0.0 | 0.0 | 0.00 | 0.10 | 0.00 | 1007.7 | ||
| 20260904101518 | -17 | 0.0 | 0.0 | 0.00 | 0.10 | 0.00 | 1007.7 | ||
| 20260904100025 | 22 | 202 | 4.8 | 4.8 | 0.00 | 0.10 | 0.00 | 83 | 1007.5 |
| 20260904094559 | 22 | 204 | 3.2 | 4.8 | 0.00 | 0.10 | 0.00 | 85 | 1007.6 |
| 20260904093100 | 23 | 209 | 4.8 | 8.0 | 0.00 | 0.10 | 0.00 | 86 | 1007.4 |
| 20260904091535 | 23 | 216 | 4.8 | 9.7 | 0.00 | 0.13 | 0.00 | 86 | 1007.3 |
| 20260904090039 | 23 | 212 | 4.8 | 9.7 | 0.00 | 0.13 | 0.00 | 86 | 1007.2 |
| 20260904084514 | 23 | 203 | 6.4 | 11.3 | 0.00 | 0.13 | 0.00 | 87 | 1007.2 |
| 20260904083013 | 23 | 207 | 6.4 | 11.3 | 0.00 | 0.13 | 0.00 | 87 | 1007.2 |
| 20260904081554 | 24 | 204 | 6.4 | 11.3 | 0.00 | 0.13 | 0.00 | 87 | 1007.2 |
| 20260904080054 | 23 | 191 | 6.4 | 11.3 | 0.00 | 0.13 | 0.00 | 86 | 1007.2 |
| 20260904074537 | 23 | 200 | 6.4 | 9.7 | 0.00 | 0.13 | 0.00 | 86 | 1007.3 |
| 20260904073050 | 23 | 191 | 6.4 | 9.7 | 0.00 | 0.13 | 0.00 | 86 | 1007.4 |
| 20260904071516 | 24 | 167 | 6.4 | 11.3 | 0.00 | 0.13 | 0.00 | 86 | 1007.4 |
| 20260904070017 | 24 | 190 | 8.0 | 11.3 | 0.00 | 0.13 | 0.00 | 87 | 1007.4 |
| 20260904064558 | 24 | 185 | 8.0 | 11.3 | 0.00 | 0.13 | 0.00 | 87 | 1007.5 |
| 20260904063058 | 25 | 172 | 6.4 | 11.3 | 0.00 | 0.13 | 0.00 | 87 | 1007.4 |
| 20260904061537 | 25 | 166 | 8.0 | 12.9 | 0.00 | 0.13 | 0.00 | 87 | 1007.5 |
| 20260904060037 | 24 | 174 | 8.0 | 11.3 | 0.00 | 0.13 | 0.00 | 86 | 1007.4 |
| 20260904054518 | 25 | 186 | 8.0 | 14.5 | 0.00 | 0.13 | 0.00 | 87 | 1007.3 |
| 20260904053017 | 25 | 170 | 8.0 | 16.1 | 0.00 | 0.13 | 0.00 | 87 | 1007.2 |
| 20260904051600 | 25 | 169 | 9.7 | 14.5 | 0.00 | 0.13 | 0.00 | 87 | 1007.1 |
| 20260904050059 | 25 | 169 | 9.7 | 12.9 | 0.00 | 0.13 | 0.00 | 86 | 1007.2 |
| 20260904044542 | 25 | 169 | 8.0 | 12.9 | 0.00 | 0.13 | 0.00 | 81 | 1007.2 |
| 20260904043037 | 24 | 146 | 1.6 | 6.4 | 0.00 | 0.13 | 0.00 | 82 | 1007.3 |
| 20260904041518 | 25 | 160 | 4.8 | 9.7 | 0.00 | 0.13 | 0.00 | 83 | 1007.3 |
| 20260904040016 | 25 | 167 | 6.4 | 11.3 | 0.00 | 0.13 | 0.00 | 85 | 1007.2 |
| 20260904034602 | 25 | 153 | 8.0 | 14.5 | 0.00 | 0.13 | 0.00 | 86 | 1007.1 |
| 20260904033107 | 25 | 166 | 6.4 | 12.9 | 0.00 | 0.13 | 0.00 | 85 | 1007.3 |
| 20260904031538 | 25 | 136 | 6.4 | 9.7 | 0.00 | 0.13 | 0.00 | 85 | 1007.3 |
| 20260904030037 | 25 | 141 | 4.8 | 9.7 | 0.00 | 0.13 | 0.00 | 86 | 1007.2 |
| 20260904024518 | 25 | 143 | 1.6 | 6.4 | 0.00 | 0.13 | 0.00 | 86 | 1007.1 |
| 20260904023015 | 26 | 120 | 1.6 | 3.2 | 0.00 | 0.13 | 0.00 | 87 | 1007.1 |
| 20260904021616 | 26 | 142 | 1.6 | 3.2 | 0.00 | 0.13 | 0.00 | 87 | 1007.1 |
| 20260904020100 | 26 | 206 | 0.0 | 1.6 | 0.00 | 0.13 | 0.00 | 86 | 1006.8 |
| 20260904014636 | 26 | 170 | 1.6 | 8.0 | 0.00 | 0.13 | 0.00 | 86 | 1006.6 |
| 20260904013035 | 27 | 186 | 6.4 | 12.9 | 0.00 | 0.13 | 0.00 | 85 | 1006.3 |
| 20260904011532 | 27 | 161 | 9.7 | 16.1 | 0.00 | 0.13 | 0.00 | 85 | 1006.1 |
| 20260904010013 | 27 | 181 | 9.7 | 14.5 | 0.00 | 0.13 | 0.00 | 84 | 1006.1 |
| 20260904004513 | 27 | 169 | 8.0 | 12.9 | 0.00 | 0.13 | 0.00 | 83 | 1006.1 |
| 20260904003106 | 28 | 184 | 6.4 | 11.3 | 0.00 | 0.13 | 0.00 | 82 | 1006.1 |
| 20260904001554 | 28 | 179 | 6.4 | 11.3 | 0.00 | 0.13 | 0.00 | 81 | 1006.2 |
| 20260904000035 | 29 | 190 | 8.0 | 16.1 | 0.00 | 0.13 | 0.00 | 79 | 1006.0 |
| 20260903234535 | 29 | 186 | 8.0 | 17.7 | 0.00 | 0.13 | 0.00 | 77 | 1005.8 |
| 20260903233017 | 28 | 195 | 11.3 | 17.7 | 0.00 | 0.13 | 0.00 | 78 | 1005.8 |
| 20260903231515 | 28 | 198 | 6.4 | 14.5 | 0.00 | 0.13 | 0.00 | 79 | 1006.0 |
| 20260903230106 | 28 | 203 | 11.3 | 22.5 | 0.00 | 0.13 | 0.00 | 77 | 1005.8 |
| 20260903224558 | 28 | 207 | 12.9 | 27.4 | 0.00 | 0.13 | 0.00 | 75 | 1005.6 |
| 20260903223039 | 30 | 213 | 19.3 | 27.4 | 0.00 | 0.13 | 0.00 | 70 | 1005.2 |
| 20260903221539 | 30 | 234 | 17.7 | 33.8 | 0.00 | 0.13 | 0.00 | 69 | 1005.3 |
| 20260903220021 | 30 | 233 | 12.9 | 29.0 | 0.00 | 0.13 | 0.00 | 70 | 1005.5 |
| 20260903214535 | 30 | 223 | 17.7 | 27.4 | 0.00 | 0.13 | 0.00 | 71 | 1005.3 |
| 20260903213101 | 30 | 210 | 17.7 | 25.7 | 0.00 | 0.13 | 0.00 | 71 | 1005.5 |
| 20260903211600 | 30 | 213 | 16.1 | 30.6 | 0.00 | 0.13 | 0.00 | 69 | 1006.0 |
| 20260903210042 | 30 | 199 | 20.9 | 32.2 | 0.00 | 0.13 | 0.00 | 70 | 1005.7 |
| 20260903204541 | 30 | 226 | 16.1 | 30.6 | 0.00 | 0.13 | 0.00 | 70 | 1005.5 |
| 20260903203022 | 30 | 205 | 19.3 | 30.6 | 0.00 | 0.13 | 0.00 | 68 | 1005.9 |
| 20260903201529 | 30 | 220 | 14.5 | 37.0 | 0.00 | 0.13 | 0.00 | 70 | 1005.9 |